Weather History for Parkersburg, WV

Change the Weather History Date:

Wednesday, October 23, 2013

  Actual Average Record
Temperature  
Mean Temperature 40 °F 53 °F  
Max Temperature 44 °F 64 °F 84 °F (1975)
Min Temperature 35 °F 42 °F 21 °F (1997)
Degree Days  
Heating Degree Days 25 12  
Month to date heating degree days 165 210  
Cooling Degree Days 0 0  
Month to date cooling degree days 31 13  
Year to date cooling degree days 955 949  
Moisture  
Dew Point 37 °F    
Average Humidity 86    
Maximum Humidity 92    
Minimum Humidity 79    
Precipitation  
Precipitation 0.46 in 0.09 in 1.14 in (2007)
Month to date precipitation 1.79 2.08  
Year to date precipitation 35.71 33.95  
Sea Level Pressure  
Sea Level Pressure 29.90 in    
Wind  
Wind Speed 6 mph (NW)    
Max Wind Speed 15 mph    
Max Gust Speed 21 mph    
Visibility 8 miles    
Events Rain    
T = Trace of Precipitation, MM = Missing Value Source: NWS Daily Summary

Daily Weather History Graph

Daily Weather History Graph

Search for Another Location

Airport:

Trip Planner

Search our weather history database for the weather conditions in past years. The results will help you decide how hot, cold, wet, or windy it might be!

Date:

Astronomy

Oct. 23, 2013 Rise Set
Actual Time 7:44 AM EDT 6:35 PM EDT
Civil Twilight 7:16 AM EDT 7:02 PM EDT
Nautical Twilight 6:45 AM EDT 7:33 PM EDT
Astronomical Twilight 6:14 AM EDT 8:05 PM EDT
Moon 10:06 PM EDT (10/23) 11:59 AM EDT (10/23)
Length of Visible Light 11h 45m
Length of Day
10h 51m
Waning Gibbous, 79% of the Moon is Illuminated
Oct 23
Waning Gibbous
Oct 26
Last Quarter
Nov 3
New
Nov 10
First Quarter
Nov 17
Full

Hourly Weather History & Observations

Time (EDT) Temp. Windchill Dew Point Humidity Pressure Visibility Wind Dir Wind Speed Gust Speed Precip Events Conditions
12:53 AM 42.1 °F - 39.0 °F 89% 29.88 in 8.0 mi Calm Calm - N/A   Overcast
1:53 AM 42.1 °F - 39.0 °F 89% 29.87 in 10.0 mi Calm Calm - N/A   Overcast
2:53 AM 43.0 °F 38.2 °F 35.1 °F 74% 29.86 in 10.0 mi North 8.1 mph - 0.01 in Rain Light Rain
3:53 AM 42.1 °F 39.2 °F 35.1 °F 76% 29.84 in 10.0 mi NNE 4.6 mph - 0.00 in   Overcast
4:53 AM 41.0 °F 39.0 °F 37.0 °F 86% 29.82 in 10.0 mi East 3.5 mph - 0.00 in Rain Light Rain
5:53 AM 41.0 °F 38.0 °F 37.0 °F 86% 29.81 in 10.0 mi ENE 4.6 mph - 0.00 in   Overcast
6:53 AM 41.0 °F 38.0 °F 37.0 °F 86% 29.80 in 10.0 mi NE 4.6 mph - 0.00 in Rain Light Rain
7:53 AM 39.9 °F 35.1 °F 37.9 °F 93% 29.80 in 10.0 mi ENE 6.9 mph - 0.03 in Rain Light Rain
8:42 AM 39.2 °F 33.6 °F 37.4 °F 93% 29.79 in 5.0 mi NE 8.1 mph - 0.01 in Rain Light Rain
8:53 AM 39.9 °F 35.1 °F 37.9 °F 93% 29.81 in 4.0 mi NE 6.9 mph - 0.03 in Rain Rain
9:21 AM 39.2 °F 35.9 °F 37.4 °F 93% 29.81 in 4.0 mi North 4.6 mph - 0.06 in Rain Rain
9:46 AM 39.2 °F 33.0 °F 37.4 °F 93% 29.81 in 4.0 mi North 9.2 mph - 0.12 in Rain Rain
9:53 AM 39.0 °F 34.0 °F 37.0 °F 93% 29.83 in 3.0 mi North 6.9 mph - 0.14 in Rain Rain
10:04 AM 39.2 °F 34.2 °F 37.4 °F 93% 29.82 in 4.0 mi Variable 6.9 mph - 0.02 in Rain Light Rain
10:53 AM 36.0 °F 30.3 °F 34.0 °F 93% 29.85 in 4.0 mi Variable 6.9 mph - 0.11 in Rain Rain
11:19 AM 35.6 °F 30.7 °F 33.8 °F 93% 29.83 in 4.0 mi NNW 5.8 mph - 0.05 in Rain Rain
11:53 AM 37.9 °F 35.5 °F 35.1 °F 89% 29.85 in 7.0 mi NW 3.5 mph - 0.08 in Rain Light Rain
12:00 PM 37.4 °F 34.9 °F 35.6 °F 93% 29.84 in 8.0 mi West 3.5 mph - 0.00 in Rain Light Rain
12:53 PM 39.0 °F 34.0 °F 37.0 °F 93% 29.87 in 10.0 mi WNW 6.9 mph - 0.01 in   Overcast
1:53 PM 39.9 °F 35.1 °F 37.0 °F 89% 29.88 in 10.0 mi WNW 6.9 mph - N/A   Overcast
2:53 PM 39.9 °F 35.1 °F 37.9 °F 93% 29.89 in 10.0 mi West 6.9 mph - 0.00 in   Overcast
3:41 PM 41.0 °F 35.8 °F 37.4 °F 87% 29.90 in 6.0 mi WNW 8.1 mph 20.7 mph 0.01 in Rain Light Rain
3:53 PM 42.1 °F 37.7 °F 39.0 °F 89% 29.91 in 9.0 mi WNW 6.9 mph 16.1 mph 0.02 in Rain Light Rain
4:24 PM 42.8 °F 35.8 °F 39.2 °F 87% 29.91 in 10.0 mi West 13.8 mph 19.6 mph 0.00 in Rain Light Rain
4:44 PM 41.0 °F 34.7 °F 37.4 °F 87% 29.93 in 5.0 mi WNW 10.4 mph - 0.01 in Rain Light Rain
4:53 PM 41.0 °F 35.2 °F 37.0 °F 86% 29.95 in 9.0 mi WNW 9.2 mph 17.3 mph 0.01 in Rain Light Rain
4:57 PM 41.0 °F 35.8 °F 37.4 °F 87% 29.93 in 10.0 mi WNW 8.1 mph 17.3 mph 0.00 in Rain Light Rain
5:53 PM 39.9 °F 36.7 °F 37.0 °F 89% 29.98 in 10.0 mi West 4.6 mph - 0.00 in   Overcast
6:53 PM 41.0 °F 36.4 °F 37.9 °F 89% 29.99 in 10.0 mi WSW 6.9 mph - N/A   Overcast
7:53 PM 41.0 °F 35.2 °F 36.0 °F 82% 30.01 in 10.0 mi West 9.2 mph - N/A   Overcast
8:53 PM 39.9 °F 35.8 °F 35.1 °F 83% 30.03 in 10.0 mi West 5.8 mph - N/A   Mostly Cloudy
9:32 PM 39.2 °F 34.2 °F 35.6 °F 87% 30.03 in 4.0 mi NW 6.9 mph 19.6 mph 0.02 in Rain Light Rain
9:53 PM 39.0 °F 35.7 °F 36.0 °F 89% 30.04 in 10.0 mi WSW 4.6 mph - 0.02 in   Overcast
10:00 PM 39.2 °F 37.0 °F 37.4 °F 93% 30.02 in 9.0 mi WSW 3.5 mph - N/A   Overcast
10:53 PM 39.0 °F 32.3 °F 35.1 °F 86% 30.05 in 10.0 mi West 10.4 mph - N/A   Overcast
11:53 PM 37.9 °F 31.5 °F 34.0 °F 86% 30.05 in 10.0 mi West 9.2 mph - N/A   Overcast